Time,TemperatureF,DewpointF,PressureIn,WindDirection,WindDirectionDegrees,WindSpeedMPH,WindSpeedGustMPH,Humidity,HourlyPrecipIn,Conditions,Clouds,dailyrainin,SoftwareType,DateUTC
2016-09-28 00:01:00,65.7,64.2,29.74,WSW,248,0.0,0.0,95,0.00,,---,0.00,VWS V15.00,2016-09-28 04:01:00,
2016-09-28 00:05:00,65.7,64.2,29.74,WSW,248,0.0,0.0,95,0.00,,---,0.00,VWS V15.00,2016-09-28 04:05:00,
2016-09-28 00:11:00,65.5,64.0,29.74,WSW,248,0.0,0.0,95,0.00,,---,0.00,VWS V15.00,2016-09-28 04:11:00,
2016-09-28 00:16:00,65.5,64.0,29.74,WSW,248,0.0,0.0,95,0.00,,---,0.00,VWS V15.00,2016-09-28 04:16:00,
2016-09-28 00:21:00,65.5,64.0,29.74,WSW,248,0.0,0.0,95,0.00,,---,0.00,VWS V15.00,2016-09-28 04:21:00,
2016-09-28 00:26:00,65.5,64.0,29.74,WSW,248,0.0,0.0,95,0.00,,---,0.00,VWS V15.00,2016-09-28 04:26:00,
2016-09-28 00:31:00,65.5,64.0,29.74,WSW,248,0.0,0.0,95,0.00,,---,0.00,VWS V15.00,2016-09-28 04:31:00,
2016-09-28 00:36:00,65.5,64.3,29.74,WSW,248,0.0,0.0,96,0.00,,---,0.00,VWS V15.00,2016-09-28 04:36:00,
2016-09-28 00:41:00,65.5,64.3,29.74,WSW,248,0.0,0.0,96,0.00,,---,0.00,VWS V15.00,2016-09-28 04:41:00,
2016-09-28 00:45:00,65.5,64.3,29.74,WSW,248,0.0,0.0,96,0.00,,---,0.00,VWS V15.00,2016-09-28 04:45:00,
2016-09-28 00:50:00,65.5,64.3,29.74,WSW,248,0.0,0.0,96,0.00,,---,0.00,VWS V15.00,2016-09-28 04:50:00,
2016-09-28 00:53:00,65.3,64.1,29.74,WSW,248,0.0,0.0,96,0.00,,---,0.00,VWS V15.00,2016-09-28 04:53:00,
2016-09-28 00:58:00,65.3,64.1,29.74,WSW,248,0.0,0.0,96,0.00,,---,0.00,VWS V15.00,2016-09-28 04:58:00,
2016-09-28 01:08:00,65.1,64.0,29.74,WSW,248,0.0,0.0,96,0.00,,---,0.00,VWS V15.00,2016-09-28 05:08:00,
2016-09-28 01:13:00,65.1,64.0,29.74,WSW,248,0.0,0.0,96,0.00,,---,0.00,VWS V15.00,2016-09-28 05:13:00,
2016-09-28 01:18:00,65.1,64.0,29.74,WSW,248,0.0,0.0,96,0.00,,---,0.00,VWS V15.00,2016-09-28 05:18:00,
2016-09-28 01:23:00,65.3,64.1,29.74,WSW,248,0.0,0.0,96,0.00,,---,0.00,VWS V15.00,2016-09-28 05:23:00,
2016-09-28 01:28:00,65.1,64.0,29.74,SW,225,0.0,0.0,96,0.00,,---,0.00,VWS V15.00,2016-09-28 05:28:00,
2016-09-28 01:33:00,65.1,64.0,29.74,SW,225,0.0,0.0,96,0.00,,---,0.00,VWS V15.00,2016-09-28 05:33:00,
2016-09-28 01:38:00,65.1,64.0,29.74,SW,225,0.0,0.0,96,0.00,,---,0.00,VWS V15.00,2016-09-28 05:38:00,
2016-09-28 01:43:00,64.9,63.8,29.74,SW,225,0.0,0.0,96,0.00,,---,0.00,VWS V15.00,2016-09-28 05:43:00,
2016-09-28 01:48:00,64.8,63.6,29.74,SW,225,0.0,0.0,96,0.00,,---,0.00,VWS V15.00,2016-09-28 05:48:00,
2016-09-28 01:53:00,64.8,63.6,29.74,SW,225,0.0,0.0,96,0.00,,---,0.00,VWS V15.00,2016-09-28 05:53:00,
2016-09-28 01:58:00,64.6,63.4,29.74,SW,225,0.0,0.0,96,0.00,,---,0.00,VWS V15.00,2016-09-28 05:58:00,
2016-09-28 02:03:00,64.4,62.9,29.74,SW,225,0.0,0.0,95,0.00,,---,0.00,VWS V15.00,2016-09-28 06:03:00,
2016-09-28 02:08:00,64.4,63.2,29.74,SW,225,0.0,0.0,96,0.00,,---,0.00,VWS V15.00,2016-09-28 06:08:00,
2016-09-28 02:13:00,64.2,63.1,29.74,SW,225,0.0,0.0,96,0.00,,---,0.00,VWS V15.00,2016-09-28 06:13:00,
2016-09-28 02:18:00,64.2,63.1,29.74,SW,225,0.0,0.0,96,0.00,,---,0.00,VWS V15.00,2016-09-28 06:18:00,
2016-09-28 02:23:00,64.0,62.9,29.74,SW,225,0.0,0.0,96,0.00,,---,0.00,VWS V15.00,2016-09-28 06:23:00,
2016-09-28 02:28:00,64.0,62.9,29.74,SW,225,0.0,0.0,96,0.00,,---,0.00,VWS V15.00,2016-09-28 06:28:00,
2016-09-28 02:33:00,64.0,62.9,29.74,SW,225,0.0,0.0,96,0.00,,---,0.00,VWS V15.00,2016-09-28 06:33:00,
2016-09-28 02:38:00,63.9,62.7,29.74,SW,225,0.0,0.0,96,0.00,,---,0.00,VWS V15.00,2016-09-28 06:38:00,
2016-09-28 02:43:00,63.9,62.7,29.74,SW,225,0.0,0.0,96,0.00,,---,0.00,VWS V15.00,2016-09-28 06:43:00,
2016-09-28 02:48:00,63.7,62.5,29.74,SW,225,0.0,0.0,96,0.00,,---,0.00,VWS V15.00,2016-09-28 06:48:00,
2016-09-28 02:53:00,63.7,62.5,29.74,SW,225,0.0,0.0,96,0.00,,---,0.00,VWS V15.00,2016-09-28 06:53:00,
2016-09-28 02:58:00,63.7,62.5,29.74,SW,225,0.0,0.0,96,0.00,,---,0.00,VWS V15.00,2016-09-28 06:58:00,
2016-09-28 03:03:00,63.7,62.5,29.74,SW,225,0.0,0.0,96,0.00,,---,0.00,VWS V15.00,2016-09-28 07:03:00,
2016-09-28 03:08:00,63.7,62.5,29.74,SW,225,0.0,0.0,96,0.00,,---,0.00,VWS V15.00,2016-09-28 07:08:00,
2016-09-28 03:13:00,63.7,62.5,29.74,SW,225,0.0,0.0,96,0.00,,---,0.00,VWS V15.00,2016-09-28 07:13:00,
2016-09-28 03:18:00,63.7,62.5,29.74,SW,225,0.0,0.0,96,0.00,,---,0.00,VWS V15.00,2016-09-28 07:18:00,
2016-09-28 03:23:00,63.7,62.5,29.74,SW,225,0.0,0.0,96,0.00,,---,0.00,VWS V15.00,2016-09-28 07:23:00,
2016-09-28 03:28:00,63.7,62.5,29.74,SW,225,0.0,0.0,96,0.00,,---,0.00,VWS V15.00,2016-09-28 07:28:00,
2016-09-28 03:33:00,63.5,62.3,29.74,SW,225,0.0,0.0,96,0.00,,---,0.00,VWS V15.00,2016-09-28 07:33:00,
2016-09-28 03:38:00,63.5,62.3,29.74,SW,225,0.0,0.0,96,0.00,,---,0.00,VWS V15.00,2016-09-28 07:38:00,
2016-09-28 03:43:00,63.3,62.2,29.74,SW,225,0.0,0.0,96,0.00,,---,0.00,VWS V15.00,2016-09-28 07:43:00,
2016-09-28 03:48:00,63.3,62.2,29.74,SW,225,0.0,0.0,96,0.00,,---,0.00,VWS V15.00,2016-09-28 07:48:00,
2016-09-28 03:53:00,63.3,62.2,29.74,SW,225,0.0,0.0,96,0.00,,---,0.00,VWS V15.00,2016-09-28 07:53:00,
2016-09-28 03:58:00,63.1,62.0,29.74,SW,225,0.0,0.0,96,0.00,,---,0.00,VWS V15.00,2016-09-28 07:58:00,
2016-09-28 04:03:00,63.1,62.0,29.74,SW,225,0.0,0.0,96,0.00,,---,0.00,VWS V15.00,2016-09-28 08:03:00,
2016-09-28 04:08:00,63.0,61.8,29.74,SW,225,0.0,0.0,96,0.00,,---,0.00,VWS V15.00,2016-09-28 08:08:00,
2016-09-28 04:13:00,63.0,61.8,29.74,SW,225,0.0,0.0,96,0.00,,---,0.00,VWS V15.00,2016-09-28 08:13:00,
2016-09-28 04:18:00,63.0,61.8,29.74,SW,225,0.0,0.0,96,0.00,,---,0.00,VWS V15.00,2016-09-28 08:18:00,
2016-09-28 04:23:00,63.0,61.8,29.74,SW,225,0.0,0.0,96,0.00,,---,0.00,VWS V15.00,2016-09-28 08:23:00,
2016-09-28 04:28:00,63.0,61.8,29.74,SW,225,0.0,0.0,96,0.00,,---,0.00,VWS V15.00,2016-09-28 08:28:00,
2016-09-28 04:33:00,62.8,61.6,29.74,SW,225,0.0,0.0,96,0.00,,---,0.00,VWS V15.00,2016-09-28 08:33:00,
2016-09-28 04:38:00,62.8,61.6,29.74,SSW,202,2.5,2.5,96,0.00,,---,0.00,VWS V15.00,2016-09-28 08:38:00,
2016-09-28 04:43:00,62.6,61.5,29.74,South,180,0.0,0.0,96,0.00,,---,0.00,VWS V15.00,2016-09-28 08:43:00,
2016-09-28 04:48:00,62.6,61.5,29.74,South,180,0.0,0.0,96,0.00,,---,0.00,VWS V15.00,2016-09-28 08:48:00,
2016-09-28 04:53:00,62.6,61.5,29.74,South,180,0.0,0.0,96,0.00,,---,0.00,VWS V15.00,2016-09-28 08:53:00,
2016-09-28 04:58:00,62.8,61.6,29.74,South,180,0.0,0.0,96,0.00,,---,0.00,VWS V15.00,2016-09-28 08:58:00,
2016-09-28 05:03:00,62.8,61.6,29.74,South,180,0.0,0.0,96,0.00,,---,0.00,VWS V15.00,2016-09-28 09:03:00,
2016-09-28 05:08:00,62.8,61.6,29.74,South,180,0.0,0.0,96,0.00,,---,0.00,VWS V15.00,2016-09-28 09:08:00,
2016-09-28 05:13:00,62.8,61.6,29.74,South,180,0.0,0.0,96,0.00,,---,0.00,VWS V15.00,2016-09-28 09:13:00,
2016-09-28 05:18:00,62.8,61.6,29.74,South,180,0.0,0.0,96,0.00,,---,0.00,VWS V15.00,2016-09-28 09:18:00,
2016-09-28 05:23:00,63.0,61.8,29.74,South,180,0.0,0.0,96,0.00,,---,0.00,VWS V15.00,2016-09-28 09:23:00,
2016-09-28 05:28:00,63.0,61.8,29.74,South,180,0.0,0.0,96,0.00,,---,0.00,VWS V15.00,2016-09-28 09:28:00,
2016-09-28 05:33:00,63.0,61.8,29.74,South,180,0.0,0.0,96,0.00,,---,0.00,VWS V15.00,2016-09-28 09:33:00,
2016-09-28 05:38:00,63.0,62.1,29.74,South,180,0.0,0.0,97,0.00,,---,0.00,VWS V15.00,2016-09-28 09:38:00,
2016-09-28 05:43:00,63.1,62.3,29.74,South,180,0.0,0.0,97,0.00,,---,0.00,VWS V15.00,2016-09-28 09:43:00,
2016-09-28 05:48:00,63.1,62.3,29.74,South,180,0.0,0.0,97,0.00,,---,0.00,VWS V15.00,2016-09-28 09:48:00,
2016-09-28 05:53:00,63.1,62.3,29.74,South,180,0.0,0.0,97,0.00,,---,0.00,VWS V15.00,2016-09-28 09:53:00,
2016-09-28 05:58:00,63.3,62.5,29.74,South,180,0.0,0.0,97,0.00,,---,0.00,VWS V15.00,2016-09-28 09:58:00,
2016-09-28 06:03:00,63.3,62.5,29.74,South,180,0.0,0.0,97,0.00,,---,0.00,VWS V15.00,2016-09-28 10:03:00,
2016-09-28 06:08:00,63.5,62.6,29.74,South,180,0.0,0.0,97,0.00,,---,0.00,VWS V15.00,2016-09-28 10:08:00,
2016-09-28 06:13:00,63.5,62.6,29.74,South,180,0.0,0.0,97,0.00,,---,0.00,VWS V15.00,2016-09-28 10:13:00,
2016-09-28 06:18:00,63.7,62.8,29.74,South,180,0.0,0.0,97,0.00,,---,0.00,VWS V15.00,2016-09-28 10:18:00,
2016-09-28 06:23:00,63.9,63.0,29.74,South,180,0.0,0.0,97,0.00,,---,0.00,VWS V15.00,2016-09-28 10:23:00,
2016-09-28 06:28:00,63.9,63.0,29.74,South,180,0.0,0.0,97,0.00,,---,0.00,VWS V15.00,2016-09-28 10:28:00,
2016-09-28 06:33:00,63.9,63.0,29.74,South,180,0.0,0.0,97,0.00,,---,0.00,VWS V15.00,2016-09-28 10:33:00,
2016-09-28 06:38:00,63.9,63.0,29.74,South,180,0.0,0.0,97,0.00,,---,0.00,VWS V15.00,2016-09-28 10:38:00,
2016-09-28 06:43:00,63.9,63.0,29.74,South,180,0.0,0.0,97,0.00,,---,0.00,VWS V15.00,2016-09-28 10:43:00,
2016-09-28 06:53:00,64.2,63.3,29.74,South,180,0.0,0.0,97,0.00,,---,0.00,VWS V15.00,2016-09-28 10:53:00,
2016-09-28 06:58:00,64.2,63.3,29.74,South,180,0.0,0.0,97,0.00,,---,0.00,VWS V15.00,2016-09-28 10:58:00,
2016-09-28 07:03:00,64.4,63.2,29.74,South,180,0.0,0.0,96,0.00,,---,0.00,VWS V15.00,2016-09-28 11:03:00,
2016-09-28 07:08:00,64.4,63.5,29.74,South,180,0.0,0.0,97,0.00,,---,0.00,VWS V15.00,2016-09-28 11:08:00,
2016-09-28 07:13:00,64.4,63.2,29.74,South,180,0.0,0.0,96,0.00,,---,0.00,VWS V15.00,2016-09-28 11:13:00,
2016-09-28 07:18:00,64.4,63.2,29.74,South,180,0.0,0.0,96,0.00,,---,0.00,VWS V15.00,2016-09-28 11:18:00,
2016-09-28 07:23:00,64.6,63.7,29.74,South,180,0.0,0.0,97,0.00,,---,0.00,VWS V15.00,2016-09-28 11:23:00,
2016-09-28 07:33:00,64.6,63.4,29.74,South,180,0.0,0.0,96,0.00,,---,0.00,VWS V15.00,2016-09-28 11:33:00,
2016-09-28 07:38:00,64.6,63.4,29.74,South,180,0.0,0.0,96,0.00,,---,0.00,VWS V15.00,2016-09-28 11:38:00,
2016-09-28 07:43:00,64.6,63.4,29.74,South,180,0.0,0.0,96,0.00,,---,0.00,VWS V15.00,2016-09-28 11:43:00,
2016-09-28 07:53:00,64.6,63.4,29.74,South,180,0.0,0.0,96,0.04,,---,0.04,VWS V15.00,2016-09-28 11:53:00,
2016-09-28 07:58:00,64.6,63.4,29.74,South,180,0.0,0.0,96,0.04,,---,0.04,VWS V15.00,2016-09-28 11:58:00,
2016-09-28 08:03:00,64.6,63.4,29.74,South,180,0.0,0.0,96,0.04,,---,0.04,VWS V15.00,2016-09-28 12:03:00,
2016-09-28 08:08:00,64.6,63.4,29.74,South,180,0.0,0.0,96,0.04,,---,0.04,VWS V15.00,2016-09-28 12:08:00,
2016-09-28 08:13:00,64.6,63.4,29.74,South,180,0.0,0.0,96,0.04,,---,0.04,VWS V15.00,2016-09-28 12:13:00,
2016-09-28 08:18:00,64.6,63.4,29.74,South,180,0.0,0.0,96,0.04,,---,0.04,VWS V15.00,2016-09-28 12:18:00,
2016-09-28 08:23:00,64.6,63.4,29.74,South,180,0.0,0.0,96,0.04,,---,0.04,VWS V15.00,2016-09-28 12:23:00,
2016-09-28 08:28:00,64.6,63.4,29.74,South,180,0.0,0.0,96,0.04,,---,0.04,VWS V15.00,2016-09-28 12:28:00,
2016-09-28 08:33:00,64.6,63.4,29.74,South,180,0.0,0.0,96,0.04,,---,0.04,VWS V15.00,2016-09-28 12:33:00,
2016-09-28 08:38:00,64.6,63.4,29.74,South,180,0.0,0.0,96,0.04,,---,0.04,VWS V15.00,2016-09-28 12:38:00,
2016-09-28 08:43:00,64.6,63.4,29.74,South,180,0.0,0.0,96,0.04,,---,0.04,VWS V15.00,2016-09-28 12:43:00,
2016-09-28 08:48:00,64.6,63.4,29.74,South,180,0.0,0.0,96,0.04,,---,0.04,VWS V15.00,2016-09-28 12:48:00,
2016-09-28 08:53:00,64.6,63.4,29.74,South,180,0.0,0.0,96,0.00,,---,0.04,VWS V15.00,2016-09-28 12:53:00,
2016-09-28 08:58:00,64.6,63.4,29.76,South,180,0.0,0.0,96,0.00,,---,0.04,VWS V15.00,2016-09-28 12:58:00,
2016-09-28 09:03:00,64.6,63.4,29.76,South,180,0.0,0.0,96,0.00,,---,0.04,VWS V15.00,2016-09-28 13:03:00,
2016-09-28 09:08:00,64.6,63.4,29.76,South,180,0.0,0.0,96,0.00,,---,0.04,VWS V15.00,2016-09-28 13:08:00,
2016-09-28 09:13:00,64.6,63.4,29.74,South,180,0.0,0.0,96,0.00,,---,0.04,VWS V15.00,2016-09-28 13:13:00,
2016-09-28 09:18:00,64.6,63.4,29.74,South,180,0.0,0.0,96,0.00,,---,0.04,VWS V15.00,2016-09-28 13:18:00,
2016-09-28 09:23:00,64.6,63.4,29.74,South,180,0.0,0.0,96,0.00,,---,0.04,VWS V15.00,2016-09-28 13:23:00,
2016-09-28 09:28:00,64.6,63.4,29.76,South,180,0.0,0.0,96,0.00,,---,0.04,VWS V15.00,2016-09-28 13:28:00,
2016-09-28 09:33:00,64.6,63.4,29.76,South,180,0.0,0.0,96,0.00,,---,0.04,VWS V15.00,2016-09-28 13:33:00,
2016-09-28 09:43:00,64.6,63.4,29.76,SSW,202,0.0,0.0,96,0.00,,---,0.04,VWS V15.00,2016-09-28 13:43:00,
2016-09-28 09:48:00,64.6,63.4,29.76,SSW,202,0.0,0.0,96,0.00,,---,0.04,VWS V15.00,2016-09-28 13:48:00,
2016-09-28 09:53:00,64.6,63.4,29.76,SSW,202,0.0,0.0,96,0.00,,---,0.04,VWS V15.00,2016-09-28 13:53:00,
2016-09-28 09:58:00,64.6,63.4,29.76,SSW,202,0.0,0.0,96,0.00,,---,0.04,VWS V15.00,2016-09-28 13:58:00,
2016-09-28 10:03:00,64.6,63.4,29.76,SSW,202,0.0,0.0,96,0.00,,---,0.04,VWS V15.00,2016-09-28 14:03:00,
2016-09-28 10:08:00,64.6,63.4,29.76,SSW,202,0.0,0.0,96,0.00,,---,0.04,VWS V15.00,2016-09-28 14:08:00,
2016-09-28 10:13:00,64.6,63.4,29.76,SSW,202,0.0,0.0,96,0.00,,---,0.04,VWS V15.00,2016-09-28 14:13:00,
2016-09-28 10:18:00,64.6,63.4,29.76,SSW,202,0.0,0.0,96,0.00,,---,0.04,VWS V15.00,2016-09-28 14:18:00,
2016-09-28 10:23:00,64.6,63.4,29.76,SSW,202,0.0,0.0,96,0.00,,---,0.04,VWS V15.00,2016-09-28 14:23:00,
2016-09-28 10:28:00,64.6,63.4,29.76,SSW,202,0.0,0.0,96,0.00,,---,0.04,VWS V15.00,2016-09-28 14:28:00,
2016-09-28 10:33:00,64.6,63.4,29.76,SSW,202,0.0,0.0,96,0.00,,---,0.04,VWS V15.00,2016-09-28 14:33:00,
2016-09-28 10:38:00,64.6,63.4,29.76,SSW,202,0.0,0.0,96,0.00,,---,0.04,VWS V15.00,2016-09-28 14:38:00,
2016-09-28 10:43:00,64.6,63.4,29.76,SSW,202,0.0,0.0,96,0.00,,---,0.04,VWS V15.00,2016-09-28 14:43:00,
2016-09-28 10:48:00,64.6,63.4,29.76,SSW,202,0.0,0.0,96,0.00,,---,0.04,VWS V15.00,2016-09-28 14:48:00,
2016-09-28 10:53:00,64.6,63.4,29.76,SW,225,0.9,0.9,96,0.00,,---,0.04,VWS V15.00,2016-09-28 14:53:00,
2016-09-28 11:03:00,64.6,63.4,29.76,SSW,202,0.0,0.0,96,0.00,,---,0.04,VWS V15.00,2016-09-28 15:03:00,
2016-09-28 11:08:00,64.6,63.4,29.76,West,270,0.0,0.0,96,0.00,,---,0.04,VWS V15.00,2016-09-28 15:08:00,
2016-09-28 11:13:00,64.6,63.4,29.76,SW,225,0.0,0.0,96,0.00,,---,0.04,VWS V15.00,2016-09-28 15:13:00,
2016-09-28 11:18:00,64.6,63.4,29.76,SW,225,0.0,0.0,96,0.00,,---,0.04,VWS V15.00,2016-09-28 15:18:00,
2016-09-28 11:23:00,64.6,63.4,29.76,SW,225,0.0,0.0,96,0.00,,---,0.04,VWS V15.00,2016-09-28 15:23:00,
2016-09-28 11:27:00,64.6,63.4,29.76,SW,225,0.0,0.0,96,0.00,,---,0.04,VWS V15.00,2016-09-28 15:27:00,
2016-09-28 11:32:00,64.6,63.4,29.76,SW,225,0.0,0.0,96,0.00,,---,0.04,VWS V15.00,2016-09-28 15:32:00,
2016-09-28 11:37:00,64.6,63.4,29.76,SSW,202,1.6,1.6,96,0.00,,---,0.04,VWS V15.00,2016-09-28 15:37:00,
2016-09-28 11:42:00,64.6,63.4,29.76,SSW,202,0.0,0.0,96,0.00,,---,0.04,VWS V15.00,2016-09-28 15:42:00,
2016-09-28 11:47:00,64.6,63.4,29.76,SW,225,0.0,0.0,96,0.00,,---,0.04,VWS V15.00,2016-09-28 15:47:00,
2016-09-28 11:52:00,64.6,63.4,29.76,SW,225,0.0,0.0,96,0.00,,---,0.04,VWS V15.00,2016-09-28 15:52:00,
2016-09-28 12:02:00,64.6,63.4,29.76,SW,225,0.0,0.0,96,0.00,,---,0.04,VWS V15.00,2016-09-28 16:02:00,
2016-09-28 12:07:00,64.6,63.4,29.76,SW,225,0.0,0.0,96,0.00,,---,0.04,VWS V15.00,2016-09-28 16:07:00,
2016-09-28 12:12:00,64.6,63.4,29.76,SW,225,0.0,0.0,96,0.00,,---,0.04,VWS V15.00,2016-09-28 16:12:00,
2016-09-28 12:17:00,64.6,63.4,29.76,South,180,0.0,0.0,96,0.00,,---,0.04,VWS V15.00,2016-09-28 16:17:00,
2016-09-28 12:22:00,64.6,63.4,29.76,South,180,0.0,0.0,96,0.00,,---,0.04,VWS V15.00,2016-09-28 16:22:00,
2016-09-28 12:27:00,64.6,63.4,29.76,South,180,0.0,0.0,96,0.00,,---,0.04,VWS V15.00,2016-09-28 16:27:00,
2016-09-28 12:32:00,64.6,63.4,29.76,South,180,0.0,0.0,96,0.00,,---,0.04,VWS V15.00,2016-09-28 16:32:00,
2016-09-28 12:37:00,64.6,63.4,29.76,South,180,0.0,0.0,96,0.00,,---,0.04,VWS V15.00,2016-09-28 16:37:00,
2016-09-28 12:42:00,64.6,63.4,29.76,SW,225,1.6,1.6,96,0.00,,---,0.04,VWS V15.00,2016-09-28 16:42:00,
2016-09-28 12:47:00,64.6,63.4,29.76,SSW,202,0.0,0.0,96,0.00,,---,0.04,VWS V15.00,2016-09-28 16:47:00,
2016-09-28 12:52:00,64.6,63.4,29.76,SSW,202,0.0,1.6,96,0.00,,---,0.04,VWS V15.00,2016-09-28 16:52:00,
2016-09-28 12:57:00,64.6,63.4,29.76,SSW,202,0.0,2.0,96,0.00,,---,0.04,VWS V15.00,2016-09-28 16:57:00,